Location: Bonningues
(50.7927°N, 2.0150°E)
Time: 23:39:16
(UTC+00:00)

Cosmos 468 Rocket - Pass Details

Date: 08 August 2020
Orbit: 744 x 780 km, 74.0° (Epoch: 23 September)

Event Time Altitude Azimuth Distance (km) Brightness Sun altitude
Rises 21:35:27 0° 335° (NNW) 3,277 8.9 -16.5°
Reaches altitude 10° 21:37:51 10° 336° (NNW) 2,344 7.8 -16.7°
Maximum altitude 21:43:12 87° 64° (ENE) 786 4.0 -17.2°
Enters shadow 21:45:52 30° 155° (SSE) 1,352 4.7 -17.4°
